Simultaneous Nadir Overpasses (SNOs) Predictions

Prediction of SNOs between GOES-16 and METOP-B Satellite Orbit:

Table of predicted SNOs for the next 14.0 days since TLE Epoch: 11/19/2022
Index Date Time (GOES-16) GOES-16 Lat,Lon METOP-B Lat,Lon Distance(km) Time Diff (sec)
1 11/20/2022 02:26:18 0.05, -75.18 0.23, -74.39 90.30 80
2 11/21/2022 14:47:49 -0.05, -75.21 0.80, -78.95 426.14 80
3 11/22/2022 14:24:29 -0.05, -75.22 -0.32, -73.95 143.79 80
4 11/24/2022 02:46:10 0.05, -75.21 -0.67, -78.55 380.57 80
5 11/25/2022 02:22:49 0.04, -75.21 0.39, -73.54 189.37 80
6 11/26/2022 14:41:42 -0.04, -75.24 0.58, -78.11 326.99 80
7 11/27/2022 14:23:41 -0.03, -75.24 -0.48, -73.10 243.19 80
8 11/29/2022 02:42:41 0.03, -75.24 -0.50, -77.70 280.53 80
9 11/30/2022 02:19:21 0.02, -75.25 0.57, -72.70 290.10 80
10 12/01/2022 14:40:36 -0.02, -75.29 0.40, -77.27 224.91 63
11 12/02/2022 14:17:34 -0.02, -75.31 -0.73, -72.27 346.35 80
